DELTA 1 DEB (YO), 228

Orbit data source: Space-Track

DELTA 1 DEB (YO), 228 is space debris in LEO originally from a launch on Thu, 08 Feb 1962 UTC launched from the Air Force Eastern Test Range (AFETR). Debris objects in space refer to the collection of defunct objects orbiting the Earth. Examples of debris include non-operational satellites, rocket bodies, and fragments generated from explosions, collisions, or faulty payload assembly.

Loading next visibility...
Identifier
228, 1962-002C
Orbit
LEO
Last TLE update
6 hours ago
Origin
Manufacturer
RCA/East Windsor
Mission
Spacecraft
Bus & Motor
Unknown
Mass
~1 kg wet, ~1 kg dry
Launch date (UTC)
1962-02-08 (63 years ago)
Launch vehicle
Unknown
Launch site
Air Force Eastern Test Range (AFETR)
Object type
Payload
Rocket body
Debris
Shape & HBR
Unknown
Radar Cross Section
Small (<0.1 m²)

Expand to show TLE details & history

TLE from 6 hours ago
0 DELTA 1 DEB (YO)
1   228U 62002C   25186.46227871  .00014450  00000-0  47121-3 0  9993
2   228  48.4365 330.0138 0010897 303.8145  56.1753 15.31878088413757
Epoch: 2025-07-05T11:05Z
TLE epoch observation values (Epoch: 2025-07-05T11:05:40.88Z)
Latitude
-0.00004°
Longitude
-120.10655°
Altitude
466.443 km
Speed
7.637 km/s
True Right ascension
22h 00m 03s
True Declination
0° 00' 00"
Sunlit
Object was in full shadow at epoch
Visualization orbit readout
Latitude
18.73539°
Longitude
-104.0732°
Altitude
468.78 km
Speed
7.636 km/s
Apparent Right ascension
20h 42m 59s
Apparent Declination
-12° 34' 33"
Sunlit
Object is in daylight
Visualization observer readout
Local Sidereal Time
05:23:19
Azimuth
287.557° WNW
Elevation
-38.443°
Doppler factor
1
Orbital elements
Apogee altitude
478.708 km
Perigee altitude
463.78 km
Semi-major axis
6,849.381 km
Eccentricity
0.00109
Inclination
48.4365°
RAAN
330.0138°
Arg. of periapsis
303.8145°
True anomaly
Unknown
Mean anomaly
56.1753°
Eccentric anomaly
Unknown
Mean motion
3.82883 °/min
Orbital period
94.02 mins
BSTAR
0.00047121
Loading maneuver chart data...
Loading SW <> Apogee altitude chart data...
Loading historical data...
Loading historical data...
Loading historical data...
Loading historical data...
Loading historical data...
Loading historical data...
Loading historical data...
Other satellites on launch #2 in the year 1962 (1962-02-08 UTC)

DELTA 1 DEB (YO) Visibility forecast

Observer location: undefined°, undefined°

Span
Click to sort rows by Start time (UTC) header in descending order
Start Az.
Max El. time (UTC)
Max El. Az.
Max El.
End time (UTC)
End Az.
6 mins2025-07-05 17:46:57.531Z311.51° NW2025-07-05 17:49:57.531Z3.793° NNE31.135°2025-07-05 17:52:57.531Z85.622° E
5 mins2025-07-05 19:26:57.531Z271.956° WNW2025-07-05 19:28:57.531Z202.801° SW32.242°2025-07-05 19:31:57.531Z148.824° SSE
5 mins2025-07-06 12:20:57.531Z208.057° SW2025-07-06 12:22:57.531Z120.207° SE37.716°2025-07-06 12:25:57.531Z67.291° ENE
5 mins2025-07-06 13:58:57.531Z288.198° WNW2025-07-06 14:00:57.531Z340.959° N28.651°2025-07-06 14:03:57.531Z44.582° NE
5 mins2025-07-06 17:16:57.531Z327.05° NNW2025-07-06 17:18:57.531Z24.979° NE30.158°2025-07-06 17:21:57.531Z86.409° E
|